Regional Weather Roundup
Issued by NWS

Home | Current Version | Previous Version | Text Only | Print | Product List | Glossary Off
Versions: 1 2 3 4 5 6 7 8 9 10 11 12 13 14 15 16 17 18 19 20 21 22 23 24 25 26 27 28 29 30 31 32 33 34 35 36 37 38 39 40 41 42 43 44 45 46 47 48 49 50

000
ASUS43 KLOT 250706
RWRIL

ILLINOIS REGIONAL WEATHER ROUNDUP
NATIONAL WEATHER SERVICE CHICAGO/ROMEOVILLE IL
200 AM CDT FRI JUL 25 2014

NOTE: "FAIR" INDICATES FEW OR NO CLOUDS BELOW 12,000 FEET WITH NO
SIGNIFICANT WEATHER AND/OR OBSTRUCTIONS TO VISIBILITY.

* THESE STATIONS ARE NOT UNDER NWS QUALITY CONTROL. THEY ALSO MAY NOT
  REPORT WEATHER SUCH AS PRECIPITATION OR FOG.

ILZ001-002-007-009-015-016-024-250800-
NORTHWEST ILLINOIS

CITY           SKY/WX    TMP DP  RH WIND       PRES   REMARKS
MOLINE         CLEAR     61  55  81 S6        30.04S
STERLING*      CLEAR     57  52  82 SE5       30.07S
SAVANNA*       CLEAR     58  54  87 SE5       30.04F
$$

ILZ003-004-008-010-011-017-018-250800-
NORTH CENTRAL ILLINOIS

CITY           SKY/WX    TMP DP  RH WIND       PRES   REMARKS
ROCKFORD       CLEAR     58  49  72 S5        30.09S
FREEPORT*      CLEAR     56  53  89 S5        30.08S
ROCHELLE*      CLEAR     53  50  89 S5        30.07F
DE KALB*       CLEAR     55  48  77 S6        30.08S
PERU*          CLEAR     62  52  71 SE6       30.08R
$$

ILZ005-006-012>014-019>023-250800-
NORTHEAST ILLINOIS

CITY           SKY/WX    TMP DP  RH WIND       PRES   REMARKS
CHICAGO-OHARE  PTCLDY    59  48  67 SW3       30.07R
CHICAGO-MIDWAY CLEAR     63  51  65 SW3       30.06R
AURORA         CLEAR     53  48  83 W3        30.08R
JOLIET*        CLEAR     54  50  86 CALM      30.09R
WAUKEGAN       CLEAR     56  49  77 SW3       30.06R
DUPAGE AIRPORT CLEAR     57  50  77 CALM      30.07R
KANKAKEE*      CLEAR     53  51  93 CALM      30.07S
WHEELING       CLEAR     58  48  69 CALM      30.08R
MORRIS*        CLEAR     56  53  90 NW3       30.07R
ROMEOVILLE*    CLEAR     54  49  83 CALM      30.08R
$$

LMZ740>746-250800-
SOUTHERN LAKE MICHIGAN

STATION/POSITION SKY/WX   TEMP    WIND        PRES    VSBY  WAVE
                          AIR SEA DIR/SP/G                  HT/PER
                          (F)     (DEG/KT/KT) (MB)    (MI)  (FT/S)
SOUTHERN BUOY              62 61  230/  4/  6 1017.8R         0
WAUKEGAN HARBOR            62     230/  2/  4   N/A
HARRISON CRIB              64     190/  9/ 11   N/A
CALUMET HARBOR             61     210/  3/  4 1016.5R
MICHIGAN CITY              58     130/  7/  8   N/A
MICHIGAN CITY 6N           61 69  160/  4/  6   N/A           1
ST. JOSEPH                 58 53  120/  4/  6   N/A           1
$$

ILZ025>027-034>036-040-047-049-050-058-095>099-250800-
WEST-CENTRAL ILLINOIS

CITY           SKY/WX    TMP DP  RH WIND       PRES   REMARKS
QUINCY         CLEAR     62  54  74 SE8       30.03F
GALESBURG*     CLEAR     60  56  84 CALM      30.04S
MACOMB*        CLEAR     56  55  95 SE3       30.07R
JACKSONVILLE*  CLEAR     59  55  88 SE5       30.06F
PITTSFIELD*    CLEAR     59  55  87 CALM      30.06S
$$

ILZ028>032-037-038-041>044-048-051>054-059>061-250800-
CENTRAL ILLINOIS

CITY           SKY/WX    TMP DP  RH WIND       PRES   REMARKS
PONTIAC        CLEAR     57  55  94 SE3       30.07S
DECATUR        CLEAR     60  55  83 CALM      30.07R
PEORIA         CLEAR     66  53  63 S3        30.06S
LACON*         CLEAR     58  53  82 CALM      30.06R
LINCOLN*       CLEAR     59  56  91 CALM      30.05R
SPRINGFIELD    CLEAR     58  55  90 CALM      30.07R
TAYLORVILLE    CLEAR     55  54  94 CALM      30.06S
$$

ILZ033-039-045-046-055>057-062-063-250800-
EAST-CENTRAL ILLINOIS

CITY           SKY/WX    TMP DP  RH WIND       PRES   REMARKS
CHAMPAIGN      CLEAR     57  54  89 E5        30.07R
DANVILLE*      CLEAR     57  54  89 E7        30.04S
RANTOUL*       CLEAR     61  54  76 CALM      30.09R
MATTOON        CLEAR     60  57  89 CALM      30.06F
PARIS*         CLEAR     53  53  98 CALM      30.07S
$$

ILZ079-100>102-250800-
SOUTHWEST ILLINOIS

CITY           SKY/WX    TMP DP  RH WIND       PRES   REMARKS
ALTON          CLEAR     60  59  96 E5        30.06R
BELLEVILLE     CLEAR     59  57  94 N3        30.04R FOG
CAHOKIA*       CLEAR     59  56  89 CALM      30.04S
SPARTA*        CLEAR     61  55  82 SE3       30.05F
$$

ILZ064>066-069>071-074>076-080>082-084>086-088>090-092>094-250800-
SOUTH-CENTRAL ILLINOIS

CITY           SKY/WX    TMP DP  RH WIND       PRES   REMARKS
CARBONDALE     FOG       59  57  93 CALM      30.05R VSB 3/4
CAIRO*         CLEAR     60  57  90 CALM      30.04R
EFFINGHAM*     CLEAR     56  53  88 CALM      30.06S
MARION         CLEAR     59  57  94 CALM      30.06R
MT. VERNON     CLEAR     55  52  88 CALM      30.06S
CENTRALIA*     CLEAR     55  53  94 CALM      30.05S
SALEM*         CLEAR     59  58  96 CALM      30.06S
METROPOLIS*    CLEAR     58  57  96 CALM      30.03S
$$

ILZ067-068-072-073-078-083-087-091-250800-
SOUTHEAST ILLINOIS

CITY           SKY/WX    TMP DP  RH WIND       PRES   REMARKS
LAWRENCEVILLE  CLEAR     60  58  92 N3        30.07R
FLORA*         CLEAR     58  57  96 CALM      30.07R
FAIRFIELD*     CLEAR     57  57 100 CALM      30.06R
HARRISBURG*    CLEAR     59  59 100 CALM      30.06R
ROBINSON*      CLEAR     56  56  98 CALM      30.08R FOG
CARMI*         CLEAR     61  61 100 NW3       30.05R FOG
$$

ABBREVIATIONS USED IN REMARKS
   TC - TEMPERATURE IN CELSIUS
  WCI - WIND CHILL INDEX
   HX - HEAT INDEX
  VSB - VISIBILITY
$$



USA.gov is the U.S. government's official web portal to all federal, state and local government web resources and services.